EHI
19 20 21 19 13 8 7 6 5 5 4 4 2 1 1 4 5 5 6 7 6 3 1 1 1 0 1 1 2 2 1 1 2 5 7 7 4 3 3 2 1 1 1
17 19 21 19 14 10 8 7 6 6 6 4 3 1 1 3 3 3 4 4 5 3 1 1 1 1 1 2 2 3 2 1 2 3 6 6 3 2 2 1 1 1 1
16 17 19 18 16 13 10 8 7 7 7 6 4 1 1 1 2 2 1 2 3 3 1 1 2 2 1 1 2 2 2 3 3 3 3 3 2 1 1 0 1 2 2
14 14 14 14 15 14 10 8 8 8 7 6 4 1 1 1 1 1 1 1 1 1 1 1 3 2 1 0 1 1 2 3 4 4 2 1 1 1 0 0 1 2 1
11 11 10 11 13 13 11 9 9 9 7 4 2 0 0 1 1 0 0 0 1 1 0 0 1 1 0 0 0 2 3 3 3 4 2 1 2 3 1 1 1 1 0
10 9 9 10 11 12 11 9 8 8 5 3 2 1 1 1 1 1 1 0 0 1 1 1 1 0 0 0 1 3 4 2 2 2 1 1 2 2 1 1 1 0 0
9 8 9 10 11 11 10 8 7 7 5 4 4 3 3 2 2 2 2 1 0 0 1 1 1 1 0 0 1 3 3 2 2 2 2 1 1 1 0 0 0 0 0
7 7 7 9 9 9 8 7 7 7 6 5 6 6 5 5 4 3 2 1 0 0 0 1 1 2 1 1 1 2 1 1 2 3 2 1 1 1 0 0 0 0 0
6 6 6 6 7 7 7 7 7 7 6 6 7 7 6 5 5 5 2 1 0 0 0 0 1 2 2 2 2 1 0 1 2 2 1 1 1 2 1 0 0 0 0
6 5 5 5 6 5 5 6 7 6 5 6 7 7 6 5 5 5 3 1 0 0 0 1 1 1 1 2 3 2 0 1 2 2 1 0 1 1 1 0 0 0 0
6 5 5 6 6 5 5 6 6 5 4 5 6 6 5 4 4 4 3 1 0 1 1 2 3 3 2 2 2 1 0 0 1 1 0 0 0 0 0 0 0 0 0
6 6 6 6 5 5 5 5 5 4 5 6 6 5 4 3 3 3 2 1 1 2 3 3 4 4 3 2 1 0 0 0 0 0 0 0 0 0 0 0 0 0 0
6 6 6 5 4 4 4 4 4 4 5 5 5 6 5 3 2 1 2 2 2 2 2 3 3 3 2 2 1 0 0 0 0 0 0 0 0 0 0 0 0 0 0
5 5 4 3 3 3 3 2 3 3 4 4 5 6 7 5 2 1 2 2 2 1 1 1 2 1 0 0 0 0 0 0 0 0 0 0 0 0 0 0 0 0 0
3 3 3 2 3 2 2 1 1 3 3 3 4 5 6 4 3 3 3 3 3 2 1 0 0 0 0 0 0 0 0 0 0 0 0 0 0 0 0 0 0 0 0
2 3 3 3 2 2 2 1 1 3 3 3 3 4 4 3 3 3 3 3 3 2 1 0 0 0 0 0 0 0 0 0 0 0 0 0 0 0 0 0 0 0 0
3 3 3 3 2 2 3 3 3 3 3 3 3 3 3 3 3 3 3 3 2 1 0 0 0 0 0 0 0 0 0 0 0 0 0 0 0 0 0 0 0 0 0
3 3 3 3 2 2 3 3 3 3 3 3 3 3 3 3 3 3 3 2 1 0 0 0 0 0 0 0 0 0 0 0 0 0 0 0 0 0 0 0 0 0 0
2 2 2 2 2 2 2 3 3 3 3 3 3 3 3 3 3 3 3 3 2 1 0 0 0 0 0 0 0 0 0 0 0 0 0 0 0 0 0 0 0 0 0
1 1 1 1 1 1 1 2 2 2 3 3 3 3 3 3 3 3 3 3 2 1 0 0 0 0 0 0 0 0 0 0 0 0 0 0 0 0 0 0 0 0 0
0 0 0 0 0 0 0 1 1 1 1 2 3 3 3 2 2 2 2 2 2 1 0 0 0 0 0 0 0 0 0 0 0 0 0 0 0 0 0 0 0 0 0
0 0 0 0 0 0 0 0 0 0 0 1 2 2 2 1 1 1 1 1 1 0 0 0 0 0 0 0 0 0 0 0 0 0 0 0 0 0 0 0 0 0 0
0 0 0 0 0 0 0 0 0 0 0 0 1 1 1 1 2 2 1 0 0 0 0 0 0 0 0 0 0 0 0 0 0 0 0 0 0 0 0 0 0 0 0
0 0 0 0 0 0 0 0 0 0 0 0 0 0 1 2 2 2 2 1 0 0 0 0 0 0 0 0 0 0 0 0 0 0 0 0 0 0 0 0 0 0 0
0 0 0 0 0 0 0 0 0 0 0 0 0 0 1 1 1 1 1 1 0 0 0 0 0 0 0 0 0 0 0 0 0 0 0 0 0 0 0 0 0 0 0
0 0 0 0 0 0 0 0 0 0 0 0 0 0 0 1 0 0 1 0 0 0 0 0 0 0 0 0 0 0 0 0 0 0 0 0 0 0 0 0 0 0 0
Wind_Speed
2 2 2 3 4 3 4 4 4 5 6 7 7 7 7 7 7 6 3 5 6 7 9 10 10 10 11 11 11 11 12 12 13 13 13 14 15 15 15 15 15 15 16
2 3 3 3 3 3 3 4 4 5 5 5 6 7 8 7 6 7 6 5 7 7 8 9 9 10 10 10 10 10 11 11 12 12 13 13 15 15 15 15 16 15 15
2 3 3 3 2 3 3 4 5 5 5 6 6 7 6 6 6 6 7 6 5 8 8 7 8 9 9 10 10 11 11 11 11 12 12 13 14 15 15 15 15 16 15
3 3 3 2 3 3 3 3 4 4 4 5 4 5 5 5 6 6 6 5 5 4 6 6 7 8 9 10 10 10 10 10 11 12 13 13 13 14 15 15 16 16 16
3 4 3 2 4 3 3 4 2 3 4 4 5 5 5 5 5 5 6 6 5 5 5 5 8 8 8 9 10 10 10 10 10 11 12 13 12 12 13 14 16 16 17
3 4 3 3 4 3 2 2 3 3 4 4 5 4 5 5 5 4 6 5 5 6 6 6 6 7 9 10 10 10 11 11 10 11 12 12 13 12 12 13 15 17 18
2 3 3 3 3 2 2 3 3 4 3 3 4 4 5 6 4 4 4 4 5 6 6 6 6 5 5 9 10 10 11 11 11 11 11 11 11 12 12 12 13 16 17
2 2 2 3 2 2 3 3 3 3 2 2 3 4 4 4 4 4 3 4 5 5 6 6 6 6 6 5 4 8 9 10 11 11 12 11 12 12 12 13 13 14 16
2 3 3 3 3 3 2 3 4 4 3 2 2 3 3 3 3 3 4 4 4 4 5 4 6 6 7 6 5 5 6 8 10 11 11 12 12 12 13 13 14 14 14
2 2 3 3 4 3 2 4 3 4 4 3 2 3 4 4 4 3 3 3 4 4 5 5 5 5 6 6 5 5 5 6 9 10 12 13 13 13 13 14 14 14 15
2 2 2 3 4 3 3 3 3 4 4 4 3 3 4 4 5 6 5 4 4 3 4 5 5 5 5 6 5 5 4 7 8 10 10 11 12 13 14 14 14 14 15
1 2 2 3 3 3 3 4 4 4 4 4 4 4 4 4 4 5 6 6 5 4 4 4 5 4 5 5 6 3 5 7 8 9 10 10 11 11 12 14 15 15 15
1 1 2 3 3 3 3 3 4 4 4 4 4 4 4 5 4 5 6 6 6 5 4 4 4 4 5 5 4 3 6 7 8 9 10 10 10 11 12 13 14 14 14
2 2 3 4 4 4 3 3 4 4 3 4 5 4 4 4 4 5 5 5 6 6 5 4 4 4 4 5 4 5 6 6 8 9 10 10 10 11 11 11 12 12 12
3 3 3 3 3 3 3 4 3 3 3 4 4 4 4 3 4 4 5 5 6 7 6 5 4 4 4 4 4 5 7 4 5 7 9 9 10 9 9 10 10 10 9
3 4 4 4 4 3 3 4 3 2 2 3 3 3 4 3 4 4 5 5 5 7 7 6 5 5 5 6 4 6 7 5 7 7 7 8 8 8 9 9 9 9 9
3 3 4 4 4 3 3 3 3 3 3 3 3 3 3 3 3 4 4 5 5 5 6 6 5 5 5 6 6 6 7 7 5 6 6 6 7 8 9 9 9 9 9
4 3 3 4 4 4 3 3 4 3 3 3 3 3 4 3 4 4 4 5 5 5 6 7 7 6 5 6 6 7 7 6 6 4 6 7 8 8 9 9 9 10 10
4 4 3 4 4 4 3 3 4 3 3 3 3 4 4 4 4 4 5 5 5 4 5 6 7 5 5 5 6 6 7 6 7 5 7 9 9 9 9 9 9 10 10
3 3 4 3 3 4 3 3 4 4 3 3 3 4 4 4 4 5 4 5 5 5 5 6 6 6 5 5 5 5 5 5 5 6 5 5 7 10 11 10 10 10 10
3 3 3 3 3 3 3 4 5 4 4 4 4 4 4 3 4 5 5 5 5 5 6 6 6 6 5 5 5 5 5 5 5 5 4 4 4 5 7 9 10 10 9
4 3 3 3 3 3 3 4 6 5 4 4 4 4 4 3 2 4 5 6 6 6 7 6 6 6 7 7 6 6 6 6 6 3 4 5 4 4 4 4 5 7 8
3 4 3 3 3 2 2 4 5 6 4 4 4 4 4 3 3 4 4 6 6 6 7 7 8 7 8 7 7 8 6 7 7 5 5 5 5 4 5 3 4 6 6
3 3 3 3 3 3 2 4 6 5 4 4 4 4 4 4 4 5 6 5 5 4 5 5 6 7 7 8 8 8 7 7 7 5 4 5 5 5 5 3 4 6 6
3 3 2 3 3 3 2 3 5 4 3 3 3 3 4 4 3 5 6 5 6 5 3 3 5 7 7 8 7 6 6 6 6 4 3 5 5 5 4 4 2 6 7
3 3 2 2 2 3 3 3 4 4 3 3 2 1 1 2 3 5 5 5 6 6 6 5 4 5 6 5 5 6 6 6 6 5 4 5 5 5 5 4 3 2 4
Wind_Direction
240 233 232 241 246 245 243 251 260 263 261 257 258 258 263 262 264 264 239 191 229 252 257 257 257 257 253 246 242 240 239 237 236 235 230 226 225 225 226 226 224 223 223
255 247 234 241 250 255 265 263 266 265 263 264 260 258 258 260 258 264 265 219 207 232 252 258 260 261 260 252 248 246 243 243 240 237 234 229 224 223 223 225 225 224 224
247 253 246 240 254 256 254 260 261 261 259 257 254 255 252 255 260 257 262 263 236 213 225 248 261 259 259 259 255 253 250 247 246 240 235 233 229 227 225 226 226 224 224
252 252 253 253 260 251 248 253 261 269 271 271 266 264 258 247 252 253 255 257 266 263 222 218 251 258 259 258 258 256 254 252 249 244 240 236 233 230 228 228 228 227 226
256 259 263 264 255 253 253 263 266 274 273 275 268 257 261 256 251 250 256 258 260 266 267 213 227 241 251 254 256 257 256 254 251 248 241 237 235 232 230 230 229 227 227
269 277 267 265 263 260 263 267 262 258 272 275 274 267 260 257 258 255 257 254 250 258 263 270 251 227 226 242 250 254 255 254 252 250 246 240 238 235 232 230 231 228 226
265 271 283 275 264 263 276 273 264 252 260 278 270 262 244 236 249 254 257 267 259 258 262 263 266 270 243 226 231 246 254 256 253 252 250 247 243 238 236 234 236 231 227
288 262 276 271 264 258 248 257 259 271 270 266 286 286 265 222 224 245 256 258 270 269 265 262 268 265 272 267 225 233 251 258 258 257 255 250 247 243 240 237 236 236 230
291 286 280 284 282 269 254 250 252 255 270 257 269 291 294 304 307 232 249 257 267 274 272 276 266 267 263 265 262 227 242 260 261 260 259 254 249 246 243 241 239 237 234
296 303 289 280 278 275 264 258 248 257 256 263 241 248 279 306 291 287 256 261 272 271 281 283 281 271 265 263 258 262 248 258 263 264 261 256 251 246 244 241 240 240 237
290 299 289 280 272 271 275 276 265 260 259 266 273 267 262 259 261 278 289 290 282 280 284 285 286 280 269 264 263 262 254 259 262 265 266 260 254 248 244 243 241 242 241
271 282 287 285 276 280 273 267 263 254 263 266 274 278 274 278 278 284 286 283 290 292 288 288 283 282 279 272 269 277 257 258 261 262 264 264 260 255 251 246 242 243 244
280 314 300 286 288 286 277 275 266 269 260 256 256 270 282 281 289 285 284 291 295 292 285 278 287 285 285 288 285 274 256 253 255 257 260 262 259 255 253 252 246 245 245
299 304 290 285 287 288 286 281 271 259 260 260 259 269 277 280 289 285 285 290 291 291 289 296 297 296 298 293 306 273 268 244 246 250 253 256 256 253 250 250 246 244 245
294 295 285 288 296 299 297 287 281 278 269 265 273 270 277 285 280 280 279 276 285 294 296 299 297 304 300 298 307 291 287 272 252 251 249 249 250 249 248 248 246 238 234
301 299 296 294 298 304 300 292 282 284 277 281 284 287 288 293 295 280 272 274 275 284 292 302 301 305 308 299 296 293 289 272 242 239 241 240 241 245 246 246 246 239 232
306 303 301 297 299 302 303 288 287 282 282 290 291 296 299 296 294 292 289 283 278 279 282 292 296 297 297 298 302 297 288 281 264 222 229 236 241 244 243 240 239 238 234
311 308 299 295 297 301 299 294 290 296 296 299 307 313 309 306 303 294 295 289 288 284 280 292 294 293 293 289 292 293 291 284 282 236 221 233 239 243 243 237 233 230 230
314 311 301 293 300 303 305 306 308 303 298 301 309 308 307 311 304 304 296 296 295 292 284 282 286 292 289 293 293 285 285 285 281 257 224 226 230 237 241 236 232 229 228
309 310 304 302 302 302 312 317 315 311 300 298 300 299 300 300 300 301 294 296 298 298 291 285 290 294 293 298 292 293 294 289 289 287 276 252 229 224 228 231 231 230 229
315 314 309 308 305 305 333 329 316 311 303 299 301 299 297 294 308 296 300 307 302 295 295 296 297 299 304 308 303 299 296 295 283 285 291 277 256 246 230 221 223 227 231
326 325 322 320 322 344 23 339 310 304 298 301 307 307 293 273 282 256 265 279 291 297 303 303 300 307 309 312 311 302 297 295 296 296 293 289 282 274 264 242 200 205 223
331 328 326 323 324 0 2 320 303 293 296 309 311 310 311 335 308 308 281 250 258 262 271 287 296 306 311 317 312 302 300 300 300 304 295 289 287 282 273 260 178 199 215
330 326 327 329 326 354 344 310 298 276 296 303 304 305 307 317 341 318 306 306 299 291 277 271 292 298 308 315 305 294 290 284 280 280 286 286 289 288 283 271 180 193 208
325 320 337 339 333 340 10 333 307 294 300 302 306 308 303 311 359 315 301 308 308 307 274 258 277 280 290 292 295 296 295 292 293 296 295 291 297 299 290 284 214 187 203
324 330 358 347 336 341 26 359 319 308 317 312 302 258 101 333 331 312 306 312 314 320 319 303 274 260 268 272 260 281 298 301 301 301 314 300 296 302 298 292 295 256 230